<?xml version="1.0" encoding="UTF-8"?>
<gpx version="1.1" creator="https://www.youtrack.es" xsi:schemaLocation="http://www.topografix.com/GPX/1/1 http://www.topografix.com/GPX/1/1/gpx.xsd http://www.garmin.com/xmlschemas/GpxExtensions/v3 http://www.garmin.com/xmlschemas/GpxExtensionsv3.xsd http://www.garmin.com/xmlschemas/TrackPointExtension/v1 http://www.garmin.com/xmlschemas/TrackPointExtensionv1.xsd" xmlns:gpxtpx="http://www.garmin.com/xmlschemas/TrackPointExtension/v1" xmlns:gpxx="http://www.garmin.com/xmlschemas/GpxExtensions/v3" xmlns:xsi="http://www.w3.org/2001/XMLSchema-instance">
  <metadata>
    <link href="https://www.youtrack.es">
      <text>YouTrack.es</text>
    </link>
    <time>2026-05-10T17:45:11Z</time>
  </metadata>
  <trk>
    <src>https://www.youtrack.es</src>
    <link href="https://www.youtrack.es/ruta/27048-argel">
      <text>YouTrack.es</text>
    </link>
    <trkseg>
      <trkpt lat="-31.61071501267708" lon="-64.82697197647396">
        <time>2021-10-31T08:15:56Z</time>
      </trkpt>
      <trkpt lat="-31.61109894799423" lon="-64.82746259567054">
        <time>2021-10-31T08:15:56Z</time>
      </trkpt>
      <trkpt lat="-31.61116216639929" lon="-64.82815667093928">
        <time>2021-10-31T08:15:56Z</time>
      </trkpt>
      <trkpt lat="-31.61295448223672" lon="-64.82808996880844">
        <time>2021-10-31T08:15:56Z</time>
      </trkpt>
      <trkpt lat="-31.61458807781156" lon="-64.82818587316089">
        <time>2021-10-31T08:15:56Z</time>
      </trkpt>
      <trkpt lat="-31.61830686863219" lon="-64.83027621930047">
        <time>2021-10-31T08:15:56Z</time>
      </trkpt>
      <trkpt lat="-31.619113780135" lon="-64.83050738822813">
        <time>2021-10-31T08:15:56Z</time>
      </trkpt>
      <trkpt lat="-31.62041258577295" lon="-64.83028495787352">
        <time>2021-10-31T08:15:56Z</time>
      </trkpt>
      <trkpt lat="-31.62201307678723" lon="-64.82970304288064">
        <time>2021-10-31T08:15:56Z</time>
      </trkpt>
      <trkpt lat="-31.62313758988618" lon="-64.82978707060245">
        <time>2021-10-31T08:15:56Z</time>
      </trkpt>
      <trkpt lat="-31.62572052938075" lon="-64.83099698702866">
        <time>2021-10-31T08:15:56Z</time>
      </trkpt>
      <trkpt lat="-31.62603460163151" lon="-64.83164701617885">
        <time>2021-10-31T08:15:56Z</time>
      </trkpt>
      <trkpt lat="-31.62917675455193" lon="-64.831599834071">
        <time>2021-10-31T08:15:56Z</time>
      </trkpt>
      <trkpt lat="-31.63065851127347" lon="-64.83100463713573">
        <time>2021-10-31T08:15:56Z</time>
      </trkpt>
      <trkpt lat="-31.63169116870608" lon="-64.8308094959763">
        <time>2021-10-31T08:15:56Z</time>
      </trkpt>
      <trkpt lat="-31.63180806219015" lon="-64.83019563932771">
        <time>2021-10-31T08:15:56Z</time>
      </trkpt>
      <trkpt lat="-31.63299071412257" lon="-64.83006456863208">
        <time>2021-10-31T08:15:56Z</time>
      </trkpt>
      <trkpt lat="-31.63339138618775" lon="-64.82952721856952">
        <time>2021-10-31T08:15:56Z</time>
      </trkpt>
      <trkpt lat="-31.6338899036717" lon="-64.82821996625992">
        <time>2021-10-31T08:15:56Z</time>
      </trkpt>
      <trkpt lat="-31.63467919209675" lon="-64.82834732057508">
        <time>2021-10-31T08:15:56Z</time>
      </trkpt>
      <trkpt lat="-31.6359965219409" lon="-64.8293606217852">
        <time>2021-10-31T08:15:56Z</time>
      </trkpt>
      <trkpt lat="-31.6366548565078" lon="-64.82957993918019">
        <time>2021-10-31T08:15:56Z</time>
      </trkpt>
      <trkpt lat="-31.6383481783342" lon="-64.82969108589049">
        <time>2021-10-31T08:15:56Z</time>
      </trkpt>
      <trkpt lat="-31.63934838705433" lon="-64.82939262966146">
        <time>2021-10-31T08:15:56Z</time>
      </trkpt>
      <trkpt lat="-31.64091621925445" lon="-64.82814998173204">
        <time>2021-10-31T08:15:56Z</time>
      </trkpt>
      <trkpt lat="-31.64144759409439" lon="-64.82806053366286">
        <time>2021-10-31T08:15:56Z</time>
      </trkpt>
      <trkpt lat="-31.64185389770152" lon="-64.82773190981754">
        <time>2021-10-31T08:15:56Z</time>
      </trkpt>
      <trkpt lat="-31.64185368668414" lon="-64.82717458909214">
        <time>2021-10-31T08:15:56Z</time>
      </trkpt>
      <trkpt lat="-31.64153912101332" lon="-64.82650706105409">
        <time>2021-10-31T08:15:56Z</time>
      </trkpt>
      <trkpt lat="-31.64243940947197" lon="-64.8263516047991">
        <time>2021-10-31T08:15:56Z</time>
      </trkpt>
      <trkpt lat="-31.64337476604237" lon="-64.82584647643171">
        <time>2021-10-31T08:15:56Z</time>
      </trkpt>
      <trkpt lat="-31.64484825306722" lon="-64.82605284079719">
        <time>2021-10-31T08:15:56Z</time>
      </trkpt>
      <trkpt lat="-31.64526960657516" lon="-64.82518370955405">
        <time>2021-10-31T08:15:56Z</time>
      </trkpt>
      <trkpt lat="-31.64520778242362" lon="-64.82454158105003">
        <time>2021-10-31T08:15:56Z</time>
      </trkpt>
      <trkpt lat="-31.64507894276919" lon="-64.82416320604798">
        <time>2021-10-31T08:15:56Z</time>
      </trkpt>
      <trkpt lat="-31.64577794895184" lon="-64.82424165717417">
        <time>2021-10-31T08:15:56Z</time>
      </trkpt>
      <trkpt lat="-31.6462575873646" lon="-64.82443278811202">
        <time>2021-10-31T08:15:56Z</time>
      </trkpt>
      <trkpt lat="-31.64669184829649" lon="-64.8245907768241">
        <time>2021-10-31T08:15:56Z</time>
      </trkpt>
      <trkpt lat="-31.64691687223426" lon="-64.8235895941347">
        <time>2021-10-31T08:15:56Z</time>
      </trkpt>
      <trkpt lat="-31.64798314808801" lon="-64.82299246894229">
        <time>2021-10-31T08:15:56Z</time>
      </trkpt>
      <trkpt lat="-31.64956339787248" lon="-64.82385670010099">
        <time>2021-10-31T08:15:56Z</time>
      </trkpt>
      <trkpt lat="-31.64999247834415" lon="-64.82492062581854">
        <time>2021-10-31T08:15:56Z</time>
      </trkpt>
      <trkpt lat="-31.65124424575471" lon="-64.82515267108943">
        <time>2021-10-31T08:15:56Z</time>
      </trkpt>
      <trkpt lat="-31.65229970894764" lon="-64.82415532830531">
        <time>2021-10-31T08:15:56Z</time>
      </trkpt>
      <trkpt lat="-31.65260584250161" lon="-64.82341233794786">
        <time>2021-10-31T08:15:56Z</time>
      </trkpt>
      <trkpt lat="-31.65327781704322" lon="-64.82303890731856">
        <time>2021-10-31T08:15:56Z</time>
      </trkpt>
      <trkpt lat="-31.65370785154346" lon="-64.82304028865636">
        <time>2021-10-31T08:15:56Z</time>
      </trkpt>
      <trkpt lat="-31.65422959347815" lon="-64.82204536214303">
        <time>2021-10-31T08:15:56Z</time>
      </trkpt>
      <trkpt lat="-31.65432973580964" lon="-64.82136229546319">
        <time>2021-10-31T08:15:56Z</time>
      </trkpt>
      <trkpt lat="-31.65503930739019" lon="-64.82018617713346">
        <time>2021-10-31T08:15:56Z</time>
      </trkpt>
      <trkpt lat="-31.65628189899979" lon="-64.81953013400238">
        <time>2021-10-31T08:15:56Z</time>
      </trkpt>
      <trkpt lat="-31.65728985002953" lon="-64.81896992497816">
        <time>2021-10-31T08:15:56Z</time>
      </trkpt>
      <trkpt lat="-31.65871463761178" lon="-64.81792381173273">
        <time>2021-10-31T08:15:56Z</time>
      </trkpt>
      <trkpt lat="-31.65982411266522" lon="-64.81673267148962">
        <time>2021-10-31T08:15:56Z</time>
      </trkpt>
      <trkpt lat="-31.66069804748333" lon="-64.81670002284565">
        <time>2021-10-31T08:15:56Z</time>
      </trkpt>
      <trkpt lat="-31.66183416312135" lon="-64.8170408241952">
        <time>2021-10-31T08:15:56Z</time>
      </trkpt>
      <trkpt lat="-31.66271329066766" lon="-64.81719960788811">
        <time>2021-10-31T08:15:56Z</time>
      </trkpt>
      <trkpt lat="-31.66357969079425" lon="-64.81688851686778">
        <time>2021-10-31T08:15:56Z</time>
      </trkpt>
      <trkpt lat="-31.66516456778835" lon="-64.81573179580883">
        <time>2021-10-31T08:15:56Z</time>
      </trkpt>
      <trkpt lat="-31.66685203863158" lon="-64.81617394430585">
        <time>2021-10-31T08:15:56Z</time>
      </trkpt>
      <trkpt lat="-31.66784191705034" lon="-64.81658990928375">
        <time>2021-10-31T08:15:56Z</time>
      </trkpt>
      <trkpt lat="-31.66815957749662" lon="-64.81682194089714">
        <time>2021-10-31T08:15:56Z</time>
      </trkpt>
      <trkpt lat="-31.66841075000636" lon="-64.81843275866498">
        <time>2021-10-31T08:15:56Z</time>
      </trkpt>
      <trkpt lat="-31.66965762226128" lon="-64.82012836247532">
        <time>2021-10-31T08:15:56Z</time>
      </trkpt>
      <trkpt lat="-31.67238904405878" lon="-64.82186162282368">
        <time>2021-10-31T08:15:56Z</time>
      </trkpt>
      <trkpt lat="-31.67248251931233" lon="-64.8218139443471">
        <time>2021-10-31T08:15:56Z</time>
      </trkpt>
      <trkpt lat="-31.67238778644704" lon="-64.82186638166506">
        <time>2021-10-31T08:15:17Z</time>
      </trkpt>
      <trkpt lat="-31.67399820403626" lon="-64.82100639243664">
        <time>2021-10-31T08:15:17Z</time>
      </trkpt>
      <trkpt lat="-31.67491218411321" lon="-64.8195645116007">
        <time>2021-10-31T08:15:17Z</time>
      </trkpt>
      <trkpt lat="-31.67497217701719" lon="-64.81876241806172">
        <time>2021-10-31T08:15:17Z</time>
      </trkpt>
      <trkpt lat="-31.67610355794644" lon="-64.81744037282228">
        <time>2021-10-31T08:15:17Z</time>
      </trkpt>
      <trkpt lat="-31.67654893242938" lon="-64.81615617506618">
        <time>2021-10-31T08:15:17Z</time>
      </trkpt>
      <trkpt lat="-31.67648534212563" lon="-64.81588012876051">
        <time>2021-10-31T08:15:17Z</time>
      </trkpt>
      <trkpt lat="-31.67616338620817" lon="-64.81550383634294">
        <time>2021-10-31T08:15:17Z</time>
      </trkpt>
      <trkpt lat="-31.67639816220292" lon="-64.81473304494537">
        <time>2021-10-31T08:15:17Z</time>
      </trkpt>
      <trkpt lat="-31.67638929542226" lon="-64.81371492235417">
        <time>2021-10-31T08:15:17Z</time>
      </trkpt>
      <trkpt lat="-31.67616974028101" lon="-64.81297578633979">
        <time>2021-10-31T08:15:17Z</time>
      </trkpt>
      <trkpt lat="-31.67603068219611" lon="-64.81244612479938">
        <time>2021-10-31T08:15:17Z</time>
      </trkpt>
      <trkpt lat="-31.67645462034879" lon="-64.81198332301599">
        <time>2021-10-31T08:15:17Z</time>
      </trkpt>
      <trkpt lat="-31.67758669202058" lon="-64.81142074668013">
        <time>2021-10-31T08:15:17Z</time>
      </trkpt>
      <trkpt lat="-31.67827169356777" lon="-64.81138778529568">
        <time>2021-10-31T08:15:17Z</time>
      </trkpt>
      <trkpt lat="-31.67883509078161" lon="-64.81146928130528">
        <time>2021-10-31T08:15:17Z</time>
      </trkpt>
      <trkpt lat="-31.67926636859249" lon="-64.81127729019893">
        <time>2021-10-31T08:15:17Z</time>
      </trkpt>
      <trkpt lat="-31.67970208760196" lon="-64.81101918596167">
        <time>2021-10-31T08:15:17Z</time>
      </trkpt>
      <trkpt lat="-31.68058074424566" lon="-64.81053933777989">
        <time>2021-10-31T08:15:17Z</time>
      </trkpt>
      <trkpt lat="-31.68093310271298" lon="-64.81019642022754">
        <time>2021-10-31T08:15:17Z</time>
      </trkpt>
      <trkpt lat="-31.68099177710363" lon="-64.80960071245242">
        <time>2021-10-31T08:15:17Z</time>
      </trkpt>
      <trkpt lat="-31.68096117686506" lon="-64.80916220482074">
        <time>2021-10-31T08:15:17Z</time>
      </trkpt>
      <trkpt lat="-31.68115879640552" lon="-64.80886170916216">
        <time>2021-10-31T08:15:17Z</time>
      </trkpt>
      <trkpt lat="-31.68146216244621" lon="-64.80901155227011">
        <time>2021-10-31T08:15:17Z</time>
      </trkpt>
      <trkpt lat="-31.68206386003168" lon="-64.80935539836661">
        <time>2021-10-31T08:15:17Z</time>
      </trkpt>
      <trkpt lat="-31.68260690641301" lon="-64.80960617638226">
        <time>2021-10-31T08:15:17Z</time>
      </trkpt>
      <trkpt lat="-31.68300715755429" lon="-64.80964980849954">
        <time>2021-10-31T08:15:17Z</time>
      </trkpt>
      <trkpt lat="-31.6833614988025" lon="-64.80938007636023">
        <time>2021-10-31T08:15:17Z</time>
      </trkpt>
      <trkpt lat="-31.68406916000232" lon="-64.80949280265978">
        <time>2021-10-31T08:15:17Z</time>
      </trkpt>
      <trkpt lat="-31.68456091313989" lon="-64.80992137986073">
        <time>2021-10-31T08:15:17Z</time>
      </trkpt>
      <trkpt lat="-31.6852242509268" lon="-64.80794004888057">
        <time>2021-10-31T08:15:17Z</time>
      </trkpt>
      <trkpt lat="-31.68631224633983" lon="-64.80697900706164">
        <time>2021-10-31T08:15:17Z</time>
      </trkpt>
      <trkpt lat="-31.68710598008862" lon="-64.8065808028534">
        <time>2021-10-31T08:15:17Z</time>
      </trkpt>
      <trkpt lat="-31.68789053658838" lon="-64.8062802635871">
        <time>2021-10-31T08:15:17Z</time>
      </trkpt>
      <trkpt lat="-31.6881959578655" lon="-64.80619929378472">
        <time>2021-10-31T08:15:17Z</time>
      </trkpt>
      <trkpt lat="-31.68860830602489" lon="-64.80678867888922">
        <time>2021-10-31T08:15:17Z</time>
      </trkpt>
      <trkpt lat="-31.68953203990124" lon="-64.80703910449543">
        <time>2021-10-31T08:15:17Z</time>
      </trkpt>
      <trkpt lat="-31.69026608650185" lon="-64.80792931601393">
        <time>2021-10-31T08:15:17Z</time>
      </trkpt>
      <trkpt lat="-31.69060230479981" lon="-64.8081113793766">
        <time>2021-10-31T08:15:17Z</time>
      </trkpt>
      <trkpt lat="-31.69101384359105" lon="-64.80823500906862">
        <time>2021-10-31T08:15:17Z</time>
      </trkpt>
      <trkpt lat="-31.69111915798473" lon="-64.8079738260305">
        <time>2021-10-31T08:15:17Z</time>
      </trkpt>
      <trkpt lat="-31.69123779844196" lon="-64.80776776214323">
        <time>2021-10-31T08:15:17Z</time>
      </trkpt>
      <trkpt lat="-31.69228746773859" lon="-64.80764500375078">
        <time>2021-10-31T08:15:17Z</time>
      </trkpt>
      <trkpt lat="-31.69396353440032" lon="-64.80640721043004">
        <time>2021-10-31T08:15:17Z</time>
      </trkpt>
      <trkpt lat="-31.69433245446382" lon="-64.80626823448959">
        <time>2021-10-31T08:15:17Z</time>
      </trkpt>
      <trkpt lat="-31.69450409212286" lon="-64.80605322087314">
        <time>2021-10-31T08:15:17Z</time>
      </trkpt>
      <trkpt lat="-31.69520098399181" lon="-64.80605490679353">
        <time>2021-10-31T08:15:17Z</time>
      </trkpt>
      <trkpt lat="-31.69553859195615" lon="-64.80607006192515">
        <time>2021-10-31T08:15:17Z</time>
      </trkpt>
      <trkpt lat="-31.6957258838396" lon="-64.80577797877751">
        <time>2021-10-31T08:15:17Z</time>
      </trkpt>
      <trkpt lat="-31.69576015331117" lon="-64.80529695379551">
        <time>2021-10-31T08:15:17Z</time>
      </trkpt>
      <trkpt lat="-31.69552716258648" lon="-64.80477728123442">
        <time>2021-10-31T08:15:17Z</time>
      </trkpt>
      <trkpt lat="-31.69598334346415" lon="-64.80349477379484">
        <time>2021-10-31T08:15:17Z</time>
      </trkpt>
      <trkpt lat="-31.69598151904078" lon="-64.80320977911306">
        <time>2021-10-31T08:15:17Z</time>
      </trkpt>
      <trkpt lat="-31.6962069664208" lon="-64.80279805829834">
        <time>2021-10-31T08:15:17Z</time>
      </trkpt>
      <trkpt lat="-31.69625335543709" lon="-64.80189244800334">
        <time>2021-10-31T08:15:17Z</time>
      </trkpt>
      <trkpt lat="-31.69699049168874" lon="-64.80137112711805">
        <time>2021-10-31T08:15:17Z</time>
      </trkpt>
      <trkpt lat="-31.69731720947407" lon="-64.80076787014757">
        <time>2021-10-31T08:15:17Z</time>
      </trkpt>
      <trkpt lat="-31.69771667213603" lon="-64.8004469454457">
        <time>2021-10-31T08:15:17Z</time>
      </trkpt>
      <trkpt lat="-31.69823823721507" lon="-64.80048298437991">
        <time>2021-10-31T08:15:17Z</time>
      </trkpt>
      <trkpt lat="-31.69911978714236" lon="-64.80026910409764">
        <time>2021-10-31T08:15:17Z</time>
      </trkpt>
      <trkpt lat="-31.69932800502369" lon="-64.80009441291477">
        <time>2021-10-31T08:15:17Z</time>
      </trkpt>
      <trkpt lat="-31.70062951944546" lon="-64.79987866244612">
        <time>2021-10-31T08:15:17Z</time>
      </trkpt>
      <trkpt lat="-31.70119460862599" lon="-64.7998112436369">
        <time>2021-10-31T08:15:17Z</time>
      </trkpt>
      <trkpt lat="-31.70233563615097" lon="-64.80022035032222">
        <time>2021-10-31T08:15:17Z</time>
      </trkpt>
      <trkpt lat="-31.70318634143371" lon="-64.80061256113709">
        <time>2021-10-31T08:15:17Z</time>
      </trkpt>
      <trkpt lat="-31.70376870478785" lon="-64.80070890197936">
        <time>2021-10-31T08:15:17Z</time>
      </trkpt>
      <trkpt lat="-31.70440172389925" lon="-64.80027488307172">
        <time>2021-10-31T08:15:17Z</time>
      </trkpt>
      <trkpt lat="-31.7047077485158" lon="-64.79934551670507">
        <time>2021-10-31T08:15:17Z</time>
      </trkpt>
      <trkpt lat="-31.70571213221574" lon="-64.7988627611237">
        <time>2021-10-31T08:15:17Z</time>
      </trkpt>
      <trkpt lat="-31.70658005112642" lon="-64.79901790241667">
        <time>2021-10-31T08:15:17Z</time>
      </trkpt>
      <trkpt lat="-31.70707803508384" lon="-64.7988392628654">
        <time>2021-10-31T08:15:17Z</time>
      </trkpt>
      <trkpt lat="-31.70746184141056" lon="-64.79859537231657">
        <time>2021-10-31T08:15:17Z</time>
      </trkpt>
      <trkpt lat="-31.70761120355779" lon="-64.79821426184888">
        <time>2021-10-31T08:15:17Z</time>
      </trkpt>
      <trkpt lat="-31.70791057381232" lon="-64.79791095776363">
        <time>2021-10-31T08:15:17Z</time>
      </trkpt>
      <trkpt lat="-31.70743494297904" lon="-64.79630168359522">
        <time>2021-10-31T08:15:17Z</time>
      </trkpt>
      <trkpt lat="-31.70712414272542" lon="-64.79575012334946">
        <time>2021-10-31T08:15:17Z</time>
      </trkpt>
      <trkpt lat="-31.70741509253312" lon="-64.79557229808823">
        <time>2021-10-31T08:15:17Z</time>
      </trkpt>
      <trkpt lat="-31.70800379527513" lon="-64.79546671533592">
        <time>2021-10-31T08:15:17Z</time>
      </trkpt>
      <trkpt lat="-31.70911879147195" lon="-64.79470159354538">
        <time>2021-10-31T08:15:17Z</time>
      </trkpt>
      <trkpt lat="-31.71002638259849" lon="-64.79392338924846">
        <time>2021-10-31T08:15:17Z</time>
      </trkpt>
      <trkpt lat="-31.71027043009972" lon="-64.79376122314419">
        <time>2021-10-31T08:15:17Z</time>
      </trkpt>
      <trkpt lat="-31.71070978265236" lon="-64.79403675452085">
        <time>2021-10-31T08:15:17Z</time>
      </trkpt>
      <trkpt lat="-31.71098697077178" lon="-64.79400546409411">
        <time>2021-10-31T08:15:17Z</time>
      </trkpt>
      <trkpt lat="-31.71116988417903" lon="-64.79355353243159">
        <time>2021-10-31T08:15:17Z</time>
      </trkpt>
      <trkpt lat="-31.71101447433501" lon="-64.7928431287912">
        <time>2021-10-31T08:15:17Z</time>
      </trkpt>
      <trkpt lat="-31.71087769246133" lon="-64.79238236472143">
        <time>2021-10-31T08:15:17Z</time>
      </trkpt>
      <trkpt lat="-31.71086406111079" lon="-64.79153660991832">
        <time>2021-10-31T08:15:17Z</time>
      </trkpt>
      <trkpt lat="-31.71082546796979" lon="-64.79098870236481">
        <time>2021-10-31T08:15:17Z</time>
      </trkpt>
      <trkpt lat="-31.71096734145311" lon="-64.79076778828119">
        <time>2021-10-31T08:15:17Z</time>
      </trkpt>
      <trkpt lat="-31.71250546006759" lon="-64.79033434885156">
        <time>2021-10-31T08:15:17Z</time>
      </trkpt>
      <trkpt lat="-31.71358412469508" lon="-64.79035685004162">
        <time>2021-10-31T08:15:17Z</time>
      </trkpt>
      <trkpt lat="-31.71451504530486" lon="-64.79108674760005">
        <time>2021-10-31T08:15:17Z</time>
      </trkpt>
      <trkpt lat="-31.7156555791398" lon="-64.79125938071796">
        <time>2021-10-31T08:15:17Z</time>
      </trkpt>
      <trkpt lat="-31.71694969450565" lon="-64.79077252609034">
        <time>2021-10-31T08:15:17Z</time>
      </trkpt>
      <trkpt lat="-31.71762514744695" lon="-64.79059409153548">
        <time>2021-10-31T08:15:17Z</time>
      </trkpt>
      <trkpt lat="-31.71788260279947" lon="-64.79005585766151">
        <time>2021-10-31T08:15:17Z</time>
      </trkpt>
      <trkpt lat="-31.7174257399762" lon="-64.78848746713595">
        <time>2021-10-31T08:15:17Z</time>
      </trkpt>
      <trkpt lat="-31.71723287680167" lon="-64.78814006114794">
        <time>2021-10-31T08:15:17Z</time>
      </trkpt>
      <trkpt lat="-31.71716168365607" lon="-64.78748205987834">
        <time>2021-10-31T08:15:17Z</time>
      </trkpt>
      <trkpt lat="-31.71696221904652" lon="-64.78667591343687">
        <time>2021-10-31T08:15:17Z</time>
      </trkpt>
      <trkpt lat="-31.71772779758336" lon="-64.7854647951946">
        <time>2021-10-31T08:15:17Z</time>
      </trkpt>
      <trkpt lat="-31.71921713162113" lon="-64.7847618466201">
        <time>2021-10-31T08:15:17Z</time>
      </trkpt>
      <trkpt lat="-31.71909991676191" lon="-64.78458545132985">
        <time>2021-10-31T08:15:17Z</time>
      </trkpt>
      <trkpt lat="-31.71879074687713" lon="-64.7843119815247">
        <time>2021-10-31T08:15:17Z</time>
      </trkpt>
      <trkpt lat="-31.71879077636595" lon="-64.78409639097949">
        <time>2021-10-31T08:15:17Z</time>
      </trkpt>
      <trkpt lat="-31.71916696674162" lon="-64.78357451485566">
        <time>2021-10-31T08:15:17Z</time>
      </trkpt>
      <trkpt lat="-31.71946402554555" lon="-64.78318774059925">
        <time>2021-10-31T08:15:17Z</time>
      </trkpt>
      <trkpt lat="-31.71940406220319" lon="-64.78250845270274">
        <time>2021-10-31T08:15:17Z</time>
      </trkpt>
      <trkpt lat="-31.7193793383633" lon="-64.78203647476357">
        <time>2021-10-31T08:15:17Z</time>
      </trkpt>
      <trkpt lat="-31.71962493999471" lon="-64.78149865340622">
        <time>2021-10-31T08:15:17Z</time>
      </trkpt>
      <trkpt lat="-31.72007611284971" lon="-64.78198930191412">
        <time>2021-10-31T08:15:17Z</time>
      </trkpt>
      <trkpt lat="-31.72122378682079" lon="-64.78307263371843">
        <time>2021-10-31T08:15:17Z</time>
      </trkpt>
      <trkpt lat="-31.721717515439" lon="-64.78317222759271">
        <time>2021-10-31T08:15:17Z</time>
      </trkpt>
      <trkpt lat="-31.72189445417419" lon="-64.78293604116162">
        <time>2021-10-31T08:15:17Z</time>
      </trkpt>
      <trkpt lat="-31.72198524087992" lon="-64.78257792100321">
        <time>2021-10-31T08:15:17Z</time>
      </trkpt>
      <trkpt lat="-31.72219362438317" lon="-64.78241009454428">
        <time>2021-10-31T08:14:12Z</time>
      </trkpt>
      <trkpt lat="-31.72245660039055" lon="-64.78164209523251">
        <time>2021-10-31T08:14:12Z</time>
      </trkpt>
      <trkpt lat="-31.72289320779958" lon="-64.78116659015767">
        <time>2021-10-31T08:14:12Z</time>
      </trkpt>
      <trkpt lat="-31.72328920737716" lon="-64.7807204320349">
        <time>2021-10-31T08:14:12Z</time>
      </trkpt>
      <trkpt lat="-31.72416224606854" lon="-64.77954684732232">
        <time>2021-10-31T08:14:12Z</time>
      </trkpt>
      <trkpt lat="-31.72489941318058" lon="-64.77967895738637">
        <time>2021-10-31T08:14:12Z</time>
      </trkpt>
      <trkpt lat="-31.72586923769221" lon="-64.77901635819902">
        <time>2021-10-31T08:14:12Z</time>
      </trkpt>
      <trkpt lat="-31.7262772004535" lon="-64.77900789604365">
        <time>2021-10-31T08:14:12Z</time>
      </trkpt>
      <trkpt lat="-31.72685312081789" lon="-64.77886789349957">
        <time>2021-10-31T08:14:12Z</time>
      </trkpt>
      <trkpt lat="-31.7273821209051" lon="-64.77895918295788">
        <time>2021-10-31T08:14:12Z</time>
      </trkpt>
      <trkpt lat="-31.72756133114218" lon="-64.7788063516701">
        <time>2021-10-31T08:14:12Z</time>
      </trkpt>
      <trkpt lat="-31.72763380728669" lon="-64.77842803335088">
        <time>2021-10-31T08:14:12Z</time>
      </trkpt>
      <trkpt lat="-31.72755550044857" lon="-64.77794413132675">
        <time>2021-10-31T08:14:12Z</time>
      </trkpt>
      <trkpt lat="-31.72756277777875" lon="-64.77756132087492">
        <time>2021-10-31T08:14:12Z</time>
      </trkpt>
      <trkpt lat="-31.72718637403727" lon="-64.77634449170006">
        <time>2021-10-31T08:14:12Z</time>
      </trkpt>
      <trkpt lat="-31.72730426399709" lon="-64.77524806535811">
        <time>2021-10-31T08:14:12Z</time>
      </trkpt>
      <trkpt lat="-31.72744479270973" lon="-64.7747628415452">
        <time>2021-10-31T08:14:12Z</time>
      </trkpt>
      <trkpt lat="-31.72759675836846" lon="-64.77426327391905">
        <time>2021-10-31T08:14:12Z</time>
      </trkpt>
      <trkpt lat="-31.7276000528134" lon="-64.77330333388905">
        <time>2021-10-31T08:14:12Z</time>
      </trkpt>
      <trkpt lat="-31.72751658794958" lon="-64.77263183827712">
        <time>2021-10-31T08:14:12Z</time>
      </trkpt>
      <trkpt lat="-31.72735132731622" lon="-64.77221382978799">
        <time>2021-10-31T08:14:12Z</time>
      </trkpt>
      <trkpt lat="-31.72678650165463" lon="-64.77167880745311">
        <time>2021-10-31T08:14:12Z</time>
      </trkpt>
      <trkpt lat="-31.72598737814159" lon="-64.77122916990662">
        <time>2021-10-31T08:14:12Z</time>
      </trkpt>
      <trkpt lat="-31.72559066919804" lon="-64.77121637510037">
        <time>2021-10-31T08:14:12Z</time>
      </trkpt>
      <trkpt lat="-31.72467201503627" lon="-64.77093819593692">
        <time>2021-10-31T08:14:12Z</time>
      </trkpt>
      <trkpt lat="-31.72406219644067" lon="-64.77027275617554">
        <time>2021-10-31T08:14:12Z</time>
      </trkpt>
      <trkpt lat="-31.72348553513774" lon="-64.76995381153486">
        <time>2021-10-31T08:14:12Z</time>
      </trkpt>
      <trkpt lat="-31.72220218789126" lon="-64.76996766084697">
        <time>2021-10-31T08:14:12Z</time>
      </trkpt>
      <trkpt lat="-31.7211632297206" lon="-64.77004875299221">
        <time>2021-10-31T08:14:12Z</time>
      </trkpt>
      <trkpt lat="-31.72028994427219" lon="-64.76969933351454">
        <time>2021-10-31T08:14:12Z</time>
      </trkpt>
      <trkpt lat="-31.71979011062549" lon="-64.76916190106853">
        <time>2021-10-31T08:14:12Z</time>
      </trkpt>
      <trkpt lat="-31.71941761464303" lon="-64.76895346871075">
        <time>2021-10-31T08:14:12Z</time>
      </trkpt>
      <trkpt lat="-31.7193398399561" lon="-64.76870605105285">
        <time>2021-10-31T08:14:12Z</time>
      </trkpt>
      <trkpt lat="-31.71909068508383" lon="-64.76846512981561">
        <time>2021-10-31T08:14:12Z</time>
      </trkpt>
      <trkpt lat="-31.71746724901118" lon="-64.76815807676201">
        <time>2021-10-31T08:14:12Z</time>
      </trkpt>
      <trkpt lat="-31.71696864847819" lon="-64.76768026811084">
        <time>2021-10-31T08:14:12Z</time>
      </trkpt>
      <trkpt lat="-31.71704719339132" lon="-64.76687753238016">
        <time>2021-10-31T08:14:12Z</time>
      </trkpt>
      <trkpt lat="-31.71735372482906" lon="-64.76597571595893">
        <time>2021-10-31T08:14:12Z</time>
      </trkpt>
      <trkpt lat="-31.7175237640927" lon="-64.7652738142431">
        <time>2021-10-31T08:14:12Z</time>
      </trkpt>
      <trkpt lat="-31.71741300059775" lon="-64.76490247410285">
        <time>2021-10-31T08:14:12Z</time>
      </trkpt>
      <trkpt lat="-31.7170231478686" lon="-64.76449304503915">
        <time>2021-10-31T08:14:12Z</time>
      </trkpt>
      <trkpt lat="-31.71637231605065" lon="-64.76405875287846">
        <time>2021-10-31T08:14:12Z</time>
      </trkpt>
      <trkpt lat="-31.7155277961439" lon="-64.76368049779441">
        <time>2021-10-31T08:14:12Z</time>
      </trkpt>
      <trkpt lat="-31.71543418414024" lon="-64.76328765481344">
        <time>2021-10-31T08:14:12Z</time>
      </trkpt>
      <trkpt lat="-31.71524678145841" lon="-64.76292618614654">
        <time>2021-10-31T08:14:12Z</time>
      </trkpt>
      <trkpt lat="-31.71437003407182" lon="-64.76223622782162">
        <time>2021-10-31T08:14:12Z</time>
      </trkpt>
      <trkpt lat="-31.71398893745931" lon="-64.76171522480784">
        <time>2021-10-31T08:14:12Z</time>
      </trkpt>
      <trkpt lat="-31.71357789674774" lon="-64.76096586987761">
        <time>2021-10-31T08:14:12Z</time>
      </trkpt>
      <trkpt lat="-31.71339926127847" lon="-64.76070839712052">
        <time>2021-10-31T08:14:12Z</time>
      </trkpt>
      <trkpt lat="-31.71253490520427" lon="-64.76025444335284">
        <time>2021-10-31T08:14:12Z</time>
      </trkpt>
      <trkpt lat="-31.71182210715291" lon="-64.75993381920586">
        <time>2021-10-31T08:14:12Z</time>
      </trkpt>
      <trkpt lat="-31.71132166302003" lon="-64.75937564995313">
        <time>2021-10-31T08:14:12Z</time>
      </trkpt>
      <trkpt lat="-31.71106048029118" lon="-64.75912827742623">
        <time>2021-10-31T08:14:12Z</time>
      </trkpt>
      <trkpt lat="-31.71047370458732" lon="-64.75908798997634">
        <time>2021-10-31T08:14:12Z</time>
      </trkpt>
      <trkpt lat="-31.70979559713622" lon="-64.75873824799666">
        <time>2021-10-31T08:14:12Z</time>
      </trkpt>
      <trkpt lat="-31.7094653968076" lon="-64.75834747574474">
        <time>2021-10-31T08:14:12Z</time>
      </trkpt>
      <trkpt lat="-31.70891331492292" lon="-64.75827805786766">
        <time>2021-10-31T08:14:12Z</time>
      </trkpt>
      <trkpt lat="-31.70832044037648" lon="-64.75823105375129">
        <time>2021-10-31T08:14:12Z</time>
      </trkpt>
      <trkpt lat="-31.70783387987492" lon="-64.75731774693656">
        <time>2021-10-31T08:14:12Z</time>
      </trkpt>
      <trkpt lat="-31.70739305842373" lon="-64.75634707917767">
        <time>2021-10-31T08:14:12Z</time>
      </trkpt>
      <trkpt lat="-31.7068538873973" lon="-64.75567221222678">
        <time>2021-10-31T08:14:12Z</time>
      </trkpt>
      <trkpt lat="-31.70637685230553" lon="-64.7548906872013">
        <time>2021-10-31T08:14:12Z</time>
      </trkpt>
      <trkpt lat="-31.70572883569351" lon="-64.75434514666691">
        <time>2021-10-31T08:14:12Z</time>
      </trkpt>
      <trkpt lat="-31.70550439583558" lon="-64.75371395726162">
        <time>2021-10-31T08:14:12Z</time>
      </trkpt>
      <trkpt lat="-31.70517358020377" lon="-64.75308681778931">
        <time>2021-10-31T08:14:12Z</time>
      </trkpt>
      <trkpt lat="-31.7045230687795" lon="-64.75245099523435">
        <time>2021-10-31T08:14:12Z</time>
      </trkpt>
      <trkpt lat="-31.70422433368272" lon="-64.7523441590514">
        <time>2021-10-31T08:14:12Z</time>
      </trkpt>
      <trkpt lat="-31.70376206571837" lon="-64.75252864091505">
        <time>2021-10-31T08:14:12Z</time>
      </trkpt>
      <trkpt lat="-31.70329596660981" lon="-64.75257419945289">
        <time>2021-10-31T08:14:12Z</time>
      </trkpt>
      <trkpt lat="-31.70286320017802" lon="-64.75232644593135">
        <time>2021-10-31T08:14:12Z</time>
      </trkpt>
      <trkpt lat="-31.70245373580921" lon="-64.75249500806369">
        <time>2021-10-31T08:14:12Z</time>
      </trkpt>
      <trkpt lat="-31.70202304875699" lon="-64.75210811036798">
        <time>2021-10-31T08:14:12Z</time>
      </trkpt>
      <trkpt lat="-31.70141928561608" lon="-64.75188077922537">
        <time>2021-10-31T08:14:12Z</time>
      </trkpt>
      <trkpt lat="-31.70075727848641" lon="-64.75082823605199">
        <time>2021-10-31T08:14:12Z</time>
      </trkpt>
      <trkpt lat="-31.70038756904983" lon="-64.75029301176039">
        <time>2021-10-31T08:14:12Z</time>
      </trkpt>
      <trkpt lat="-31.70025791272608" lon="-64.75009630830408">
        <time>2021-10-31T08:14:12Z</time>
      </trkpt>
      <trkpt lat="-31.69986254310918" lon="-64.75013222853508">
        <time>2021-10-31T08:14:12Z</time>
      </trkpt>
      <trkpt lat="-31.69938550332419" lon="-64.74956633881965">
        <time>2021-10-31T08:14:12Z</time>
      </trkpt>
      <trkpt lat="-31.69931663683616" lon="-64.74921435363386">
        <time>2021-10-31T08:14:12Z</time>
      </trkpt>
      <trkpt lat="-31.69881218040648" lon="-64.74894154350629">
        <time>2021-10-31T08:14:12Z</time>
      </trkpt>
      <trkpt lat="-31.69834944251578" lon="-64.74846550583827">
        <time>2021-10-31T08:14:12Z</time>
      </trkpt>
      <trkpt lat="-31.69804438042099" lon="-64.74812948102316">
        <time>2021-10-31T08:14:12Z</time>
      </trkpt>
      <trkpt lat="-31.69748715218441" lon="-64.74808814207829">
        <time>2021-10-31T08:14:12Z</time>
      </trkpt>
      <trkpt lat="-31.69691634694511" lon="-64.7477692033021">
        <time>2021-10-31T08:14:12Z</time>
      </trkpt>
      <trkpt lat="-31.69603207113897" lon="-64.74702418311772">
        <time>2021-10-31T08:14:12Z</time>
      </trkpt>
      <trkpt lat="-31.69573990671159" lon="-64.74629831878799">
        <time>2021-10-31T08:14:12Z</time>
      </trkpt>
      <trkpt lat="-31.69565940412863" lon="-64.74595374660255">
        <time>2021-10-31T08:14:12Z</time>
      </trkpt>
      <trkpt lat="-31.6952552505533" lon="-64.74502884324787">
        <time>2021-10-31T08:14:12Z</time>
      </trkpt>
      <trkpt lat="-31.6950727492899" lon="-64.7435618087828">
        <time>2021-10-31T08:14:12Z</time>
      </trkpt>
      <trkpt lat="-31.69454210885398" lon="-64.74298412023887">
        <time>2021-10-31T08:14:12Z</time>
      </trkpt>
      <trkpt lat="-31.69390800856977" lon="-64.74273021039795">
        <time>2021-10-31T08:14:12Z</time>
      </trkpt>
      <trkpt lat="-31.69322203166057" lon="-64.74231142252027">
        <time>2021-10-31T08:14:12Z</time>
      </trkpt>
      <trkpt lat="-31.69263992700532" lon="-64.74179829095789">
        <time>2021-10-31T08:14:12Z</time>
      </trkpt>
      <trkpt lat="-31.69254639765823" lon="-64.74119698225866">
        <time>2021-10-31T08:14:12Z</time>
      </trkpt>
      <trkpt lat="-31.6923400078507" lon="-64.74057912686706">
        <time>2021-10-31T08:14:12Z</time>
      </trkpt>
      <trkpt lat="-31.69287519610613" lon="-64.74003723767849">
        <time>2021-10-31T08:14:12Z</time>
      </trkpt>
      <trkpt lat="-31.69314926472067" lon="-64.73961693341863">
        <time>2021-10-31T08:14:12Z</time>
      </trkpt>
      <trkpt lat="-31.69277478952059" lon="-64.73931352199072">
        <time>2021-10-31T08:14:12Z</time>
      </trkpt>
      <trkpt lat="-31.69251732006187" lon="-64.73876073628432">
        <time>2021-10-31T08:14:12Z</time>
      </trkpt>
      <trkpt lat="-31.69256713359331" lon="-64.73832197295769">
        <time>2021-10-31T08:14:12Z</time>
      </trkpt>
      <trkpt lat="-31.69226506191353" lon="-64.73798932578271">
        <time>2021-10-31T08:14:12Z</time>
      </trkpt>
      <trkpt lat="-31.692126783677" lon="-64.73726651297622">
        <time>2021-10-31T08:14:12Z</time>
      </trkpt>
      <trkpt lat="-31.69224922942606" lon="-64.73701030691556">
        <time>2021-10-31T08:14:12Z</time>
      </trkpt>
      <trkpt lat="-31.69216547268957" lon="-64.7366296003643">
        <time>2021-10-31T08:14:12Z</time>
      </trkpt>
      <trkpt lat="-31.69227876224136" lon="-64.73604278424993">
        <time>2021-10-31T08:14:12Z</time>
      </trkpt>
      <trkpt lat="-31.69231760226573" lon="-64.73541114280266">
        <time>2021-10-31T08:14:12Z</time>
      </trkpt>
      <trkpt lat="-31.69250531226677" lon="-64.73486780913377">
        <time>2021-10-31T08:14:12Z</time>
      </trkpt>
      <trkpt lat="-31.69269330378895" lon="-64.73474147219993">
        <time>2021-10-31T08:14:12Z</time>
      </trkpt>
      <trkpt lat="-31.69265811127311" lon="-64.73408090570571">
        <time>2021-10-31T08:14:12Z</time>
      </trkpt>
      <trkpt lat="-31.69240857384331" lon="-64.7334086880183">
        <time>2021-10-31T08:14:12Z</time>
      </trkpt>
      <trkpt lat="-31.69206234277085" lon="-64.73290565139403">
        <time>2021-10-31T08:14:12Z</time>
      </trkpt>
      <trkpt lat="-31.69182776906911" lon="-64.73257043836063">
        <time>2021-10-31T08:14:12Z</time>
      </trkpt>
      <trkpt lat="-31.69153981281374" lon="-64.73213798276696">
        <time>2021-10-31T08:14:12Z</time>
      </trkpt>
      <trkpt lat="-31.69127313193054" lon="-64.73186357348401">
        <time>2021-10-31T08:14:12Z</time>
      </trkpt>
      <trkpt lat="-31.6902313315296" lon="-64.73166517872508">
        <time>2021-10-31T08:14:12Z</time>
      </trkpt>
      <trkpt lat="-31.68892792438726" lon="-64.73117233834354">
        <time>2021-10-31T08:14:12Z</time>
      </trkpt>
      <trkpt lat="-31.68846542864238" lon="-64.73094515106744">
        <time>2021-10-31T08:14:12Z</time>
      </trkpt>
      <trkpt lat="-31.68848365871218" lon="-64.73058703619418">
        <time>2021-10-31T08:14:12Z</time>
      </trkpt>
      <trkpt lat="-31.68852769261332" lon="-64.73034707220538">
        <time>2021-10-31T08:14:12Z</time>
      </trkpt>
      <trkpt lat="-31.68829598980378" lon="-64.72991248761367">
        <time>2021-10-31T08:14:12Z</time>
      </trkpt>
      <trkpt lat="-31.68781878746533" lon="-64.72959669906513">
        <time>2021-10-31T08:14:12Z</time>
      </trkpt>
      <trkpt lat="-31.68777263475445" lon="-64.72938953233279">
        <time>2021-10-31T08:14:12Z</time>
      </trkpt>
      <trkpt lat="-31.68768089797812" lon="-64.72914137624424">
        <time>2021-10-31T08:14:12Z</time>
      </trkpt>
      <trkpt lat="-31.68763430645578" lon="-64.72877277906328">
        <time>2021-10-31T08:14:12Z</time>
      </trkpt>
      <trkpt lat="-31.68742845282668" lon="-64.72834381142331">
        <time>2021-10-31T08:14:12Z</time>
      </trkpt>
      <trkpt lat="-31.68736172090248" lon="-64.72768632638937">
        <time>2021-10-31T08:14:12Z</time>
      </trkpt>
      <trkpt lat="-31.68751658739118" lon="-64.72700610473422">
        <time>2021-10-31T08:14:12Z</time>
      </trkpt>
      <trkpt lat="-31.68768527675274" lon="-64.72682394349795">
        <time>2021-10-31T08:14:12Z</time>
      </trkpt>
      <trkpt lat="-31.68734511995412" lon="-64.72621493406949">
        <time>2021-10-31T08:14:12Z</time>
      </trkpt>
      <trkpt lat="-31.68712504158618" lon="-64.7257105362261">
        <time>2021-10-31T08:14:12Z</time>
      </trkpt>
      <trkpt lat="-31.68665347200417" lon="-64.72561443477922">
        <time>2021-10-31T08:14:12Z</time>
      </trkpt>
      <trkpt lat="-31.68642572628181" lon="-64.72556143955183">
        <time>2021-10-31T08:14:12Z</time>
      </trkpt>
      <trkpt lat="-31.68613869491833" lon="-64.72497414776797">
        <time>2021-10-31T08:14:12Z</time>
      </trkpt>
      <trkpt lat="-31.68606853217079" lon="-64.72463020470487">
        <time>2021-10-31T08:14:12Z</time>
      </trkpt>
      <trkpt lat="-31.68565957942421" lon="-64.72430875230708">
        <time>2021-10-31T08:14:12Z</time>
      </trkpt>
      <trkpt lat="-31.68551022106126" lon="-64.72387762947898">
        <time>2021-10-31T08:14:12Z</time>
      </trkpt>
      <trkpt lat="-31.68550004837689" lon="-64.72342813775875">
        <time>2021-10-31T08:14:12Z</time>
      </trkpt>
      <trkpt lat="-31.68555721534251" lon="-64.72259726979705">
        <time>2021-10-31T08:14:12Z</time>
      </trkpt>
      <trkpt lat="-31.68521910981105" lon="-64.7225124803453">
        <time>2021-10-31T08:14:12Z</time>
      </trkpt>
      <trkpt lat="-31.6851397326027" lon="-64.72222222663491">
        <time>2021-10-31T08:14:12Z</time>
      </trkpt>
      <trkpt lat="-31.68542205322221" lon="-64.72158288658504">
        <time>2021-10-31T08:14:12Z</time>
      </trkpt>
      <trkpt lat="-31.68579636115448" lon="-64.72115300249304">
        <time>2021-10-31T08:14:12Z</time>
      </trkpt>
      <trkpt lat="-31.68587554877413" lon="-64.72090205046787">
        <time>2021-10-31T08:14:12Z</time>
      </trkpt>
      <trkpt lat="-31.68587104817937" lon="-64.72063336234416">
        <time>2021-10-31T08:14:12Z</time>
      </trkpt>
      <trkpt lat="-31.68556851930954" lon="-64.72043897142298">
        <time>2021-10-31T08:14:12Z</time>
      </trkpt>
      <trkpt lat="-31.68538684300398" lon="-64.71978252720504">
        <time>2021-10-31T08:14:12Z</time>
      </trkpt>
      <trkpt lat="-31.68539719767001" lon="-64.71930027737172">
        <time>2021-10-31T08:14:12Z</time>
      </trkpt>
      <trkpt lat="-31.68493855682013" lon="-64.71872780595696">
        <time>2021-10-31T08:14:12Z</time>
      </trkpt>
      <trkpt lat="-31.68462812357275" lon="-64.71739543900679">
        <time>2021-10-31T08:14:12Z</time>
      </trkpt>
      <trkpt lat="-31.68440482399194" lon="-64.71684535834306">
        <time>2021-10-31T08:14:12Z</time>
      </trkpt>
      <trkpt lat="-31.68469477818363" lon="-64.71648915058222">
        <time>2021-10-31T08:14:12Z</time>
      </trkpt>
      <trkpt lat="-31.68509798074345" lon="-64.71598738773314">
        <time>2021-10-31T08:14:12Z</time>
      </trkpt>
      <trkpt lat="-31.68502318622208" lon="-64.71561560499364">
        <time>2021-10-31T08:14:12Z</time>
      </trkpt>
      <trkpt lat="-31.68497972711355" lon="-64.71534624971844">
        <time>2021-10-31T08:14:12Z</time>
      </trkpt>
      <trkpt lat="-31.68551807877898" lon="-64.71522731136812">
        <time>2021-10-31T08:14:12Z</time>
      </trkpt>
      <trkpt lat="-31.68613824223027" lon="-64.71492447600927">
        <time>2021-10-31T08:14:12Z</time>
      </trkpt>
      <trkpt lat="-31.68663334377205" lon="-64.71469324601284">
        <time>2021-10-31T08:14:12Z</time>
      </trkpt>
      <trkpt lat="-31.68701767574127" lon="-64.71444662907831">
        <time>2021-10-31T08:14:12Z</time>
      </trkpt>
      <trkpt lat="-31.68756265733228" lon="-64.71420561682095">
        <time>2021-10-31T08:14:12Z</time>
      </trkpt>
      <trkpt lat="-31.68818283548614" lon="-64.71342337994206">
        <time>2021-10-31T08:14:12Z</time>
      </trkpt>
      <trkpt lat="-31.68854396077119" lon="-64.71282399632055">
        <time>2021-10-31T08:14:12Z</time>
      </trkpt>
      <trkpt lat="-31.68853483528666" lon="-64.71213669896204">
        <time>2021-10-31T08:14:12Z</time>
      </trkpt>
      <trkpt lat="-31.6885390040669" lon="-64.71180646686659">
        <time>2021-10-31T08:14:12Z</time>
      </trkpt>
      <trkpt lat="-31.68858407532459" lon="-64.71138428121684">
        <time>2021-10-31T08:14:12Z</time>
      </trkpt>
      <trkpt lat="-31.68855642748517" lon="-64.71106976638585">
        <time>2021-10-31T08:14:12Z</time>
      </trkpt>
      <trkpt lat="-31.68859583604584" lon="-64.71083085831769">
        <time>2021-10-31T08:14:12Z</time>
      </trkpt>
      <trkpt lat="-31.68862282717138" lon="-64.71040085142107">
        <time>2021-10-31T08:14:12Z</time>
      </trkpt>
      <trkpt lat="-31.68860431928269" lon="-64.70986431514574">
        <time>2021-10-31T08:14:12Z</time>
      </trkpt>
      <trkpt lat="-31.68849417436888" lon="-64.70921886162151">
        <time>2021-10-31T08:14:12Z</time>
      </trkpt>
      <trkpt lat="-31.68840851710582" lon="-64.70868907567834">
        <time>2021-10-31T08:14:12Z</time>
      </trkpt>
      <trkpt lat="-31.68832169672424" lon="-64.70811769091003">
        <time>2021-10-31T08:14:12Z</time>
      </trkpt>
      <trkpt lat="-31.68859369316259" lon="-64.7075782876686">
        <time>2021-10-31T08:14:12Z</time>
      </trkpt>
      <trkpt lat="-31.68876952961579" lon="-64.70727581179452">
        <time>2021-10-31T08:14:12Z</time>
      </trkpt>
      <trkpt lat="-31.68881757672399" lon="-64.7069657685947">
        <time>2021-10-31T08:14:12Z</time>
      </trkpt>
      <trkpt lat="-31.6888129267037" lon="-64.7065453095728">
        <time>2021-10-31T08:14:12Z</time>
      </trkpt>
      <trkpt lat="-31.68897686309152" lon="-64.70619747960239">
        <time>2021-10-31T08:14:12Z</time>
      </trkpt>
      <trkpt lat="-31.68902641501414" lon="-64.70619229367348">
        <time>2021-10-31T08:14:47Z</time>
      </trkpt>
      <trkpt lat="-31.68952739036313" lon="-64.70684662652883">
        <time>2021-10-31T08:14:47Z</time>
      </trkpt>
      <trkpt lat="-31.68953643508956" lon="-64.70706255576785">
        <time>2021-10-31T08:14:47Z</time>
      </trkpt>
      <trkpt lat="-31.69001705118406" lon="-64.70763613432204">
        <time>2021-10-31T08:14:47Z</time>
      </trkpt>
      <trkpt lat="-31.69072388835524" lon="-64.70820809188491">
        <time>2021-10-31T08:14:47Z</time>
      </trkpt>
      <trkpt lat="-31.69120484625337" lon="-64.70890222160652">
        <time>2021-10-31T08:14:47Z</time>
      </trkpt>
      <trkpt lat="-31.69173831702814" lon="-64.70920786175814">
        <time>2021-10-31T08:14:47Z</time>
      </trkpt>
      <trkpt lat="-31.69222653369252" lon="-64.7091890505295">
        <time>2021-10-31T08:14:47Z</time>
      </trkpt>
      <trkpt lat="-31.69316112075354" lon="-64.70948987895304">
        <time>2021-10-31T08:14:47Z</time>
      </trkpt>
      <trkpt lat="-31.69355783813456" lon="-64.71008445578052">
        <time>2021-10-31T08:14:47Z</time>
      </trkpt>
      <trkpt lat="-31.69391888767761" lon="-64.71004927290093">
        <time>2021-10-31T08:14:47Z</time>
      </trkpt>
      <trkpt lat="-31.69436229519401" lon="-64.70983008580671">
        <time>2021-10-31T08:14:47Z</time>
      </trkpt>
      <trkpt lat="-31.69474918315125" lon="-64.70974781190742">
        <time>2021-10-31T08:14:47Z</time>
      </trkpt>
      <trkpt lat="-31.69509254671728" lon="-64.70951120142142">
        <time>2021-10-31T08:14:47Z</time>
      </trkpt>
      <trkpt lat="-31.69571430363851" lon="-64.70941278446993">
        <time>2021-10-31T08:14:47Z</time>
      </trkpt>
      <trkpt lat="-31.69598494520622" lon="-64.70937708972491">
        <time>2021-10-31T08:14:47Z</time>
      </trkpt>
      <trkpt lat="-31.69727486745189" lon="-64.71014710025337">
        <time>2021-10-31T08:14:47Z</time>
      </trkpt>
      <trkpt lat="-31.69800381815275" lon="-64.71025324159706">
        <time>2021-10-31T08:14:47Z</time>
      </trkpt>
      <trkpt lat="-31.69847556949412" lon="-64.71002893958038">
        <time>2021-10-31T08:14:47Z</time>
      </trkpt>
      <trkpt lat="-31.69915269186887" lon="-64.71003161594956">
        <time>2021-10-31T08:14:47Z</time>
      </trkpt>
      <trkpt lat="-31.69978313356717" lon="-64.70909171511845">
        <time>2021-10-31T08:14:47Z</time>
      </trkpt>
      <trkpt lat="-31.70029915972021" lon="-64.70887528318138">
        <time>2021-10-31T08:14:47Z</time>
      </trkpt>
      <trkpt lat="-31.70061607950368" lon="-64.70839327603619">
        <time>2021-10-31T08:14:47Z</time>
      </trkpt>
      <trkpt lat="-31.70096198744118" lon="-64.70836556214525">
        <time>2021-10-31T08:14:47Z</time>
      </trkpt>
      <trkpt lat="-31.70120503698243" lon="-64.70815964628652">
        <time>2021-10-31T08:14:47Z</time>
      </trkpt>
      <trkpt lat="-31.70145750535632" lon="-64.70814512044377">
        <time>2021-10-31T08:14:47Z</time>
      </trkpt>
      <trkpt lat="-31.70194040030422" lon="-64.70791078222743">
        <time>2021-10-31T08:14:47Z</time>
      </trkpt>
      <trkpt lat="-31.70234354926627" lon="-64.70803426484078">
        <time>2021-10-31T08:14:47Z</time>
      </trkpt>
      <trkpt lat="-31.70309017369964" lon="-64.70731713865079">
        <time>2021-10-31T08:14:47Z</time>
      </trkpt>
      <trkpt lat="-31.70352825357195" lon="-64.70737695132786">
        <time>2021-10-31T08:14:47Z</time>
      </trkpt>
      <trkpt lat="-31.70416369414382" lon="-64.70705522360146">
        <time>2021-10-31T08:14:47Z</time>
      </trkpt>
      <trkpt lat="-31.70453965087028" lon="-64.70664282354964">
        <time>2021-10-31T08:14:47Z</time>
      </trkpt>
      <trkpt lat="-31.70517704140312" lon="-64.70712161871914">
        <time>2021-10-31T08:14:47Z</time>
      </trkpt>
      <trkpt lat="-31.7055309655288" lon="-64.70708879587561">
        <time>2021-10-31T08:14:47Z</time>
      </trkpt>
      <trkpt lat="-31.70569185916676" lon="-64.7068620634528">
        <time>2021-10-31T08:14:47Z</time>
      </trkpt>
      <trkpt lat="-31.70562257964096" lon="-64.70598741922231">
        <time>2021-10-31T08:14:47Z</time>
      </trkpt>
      <trkpt lat="-31.7057562820912" lon="-64.70551723574049">
        <time>2021-10-31T08:14:47Z</time>
      </trkpt>
      <trkpt lat="-31.70598503600932" lon="-64.70538376447784">
        <time>2021-10-31T08:14:47Z</time>
      </trkpt>
      <trkpt lat="-31.70644950516111" lon="-64.705658287541">
        <time>2021-10-31T08:14:47Z</time>
      </trkpt>
      <trkpt lat="-31.70678525972683" lon="-64.705559040286">
        <time>2021-10-31T08:14:47Z</time>
      </trkpt>
      <trkpt lat="-31.70705446113035" lon="-64.70453708893254">
        <time>2021-10-31T08:14:47Z</time>
      </trkpt>
      <trkpt lat="-31.70762997218288" lon="-64.70396833760955">
        <time>2021-10-31T08:14:47Z</time>
      </trkpt>
      <trkpt lat="-31.70749036614666" lon="-64.70364292518995">
        <time>2021-10-31T08:14:47Z</time>
      </trkpt>
      <trkpt lat="-31.70759200147002" lon="-64.70319314226847">
        <time>2021-10-31T08:14:47Z</time>
      </trkpt>
      <trkpt lat="-31.70775923825083" lon="-64.70304765497019">
        <time>2021-10-31T08:14:47Z</time>
      </trkpt>
      <trkpt lat="-31.70793385028542" lon="-64.70214439858795">
        <time>2021-10-31T08:14:47Z</time>
      </trkpt>
      <trkpt lat="-31.7085365884546" lon="-64.7012851264445">
        <time>2021-10-31T08:14:47Z</time>
      </trkpt>
      <trkpt lat="-31.70852747830376" lon="-64.70058551825478">
        <time>2021-10-31T08:14:47Z</time>
      </trkpt>
      <trkpt lat="-31.70892520901677" lon="-64.70023859315954">
        <time>2021-10-31T08:14:47Z</time>
      </trkpt>
      <trkpt lat="-31.70897368684272" lon="-64.69991744069054">
        <time>2021-10-31T08:14:47Z</time>
      </trkpt>
      <trkpt lat="-31.70973707813124" lon="-64.69938446119757">
        <time>2021-10-31T08:14:47Z</time>
      </trkpt>
      <trkpt lat="-31.71021780655875" lon="-64.69939044336475">
        <time>2021-10-31T08:14:47Z</time>
      </trkpt>
      <trkpt lat="-31.7110003803179" lon="-64.69916985721093">
        <time>2021-10-31T08:14:47Z</time>
      </trkpt>
      <trkpt lat="-31.71130661681362" lon="-64.69928696496763">
        <time>2021-10-31T08:14:47Z</time>
      </trkpt>
      <trkpt lat="-31.71165714116428" lon="-64.69911991417872">
        <time>2021-10-31T08:14:47Z</time>
      </trkpt>
      <trkpt lat="-31.71170331530494" lon="-64.69890322332004">
        <time>2021-10-31T08:14:47Z</time>
      </trkpt>
      <trkpt lat="-31.71221985265333" lon="-64.69850870485266">
        <time>2021-10-31T08:14:47Z</time>
      </trkpt>
      <trkpt lat="-31.71280116093043" lon="-64.69837570967375">
        <time>2021-10-31T08:14:47Z</time>
      </trkpt>
      <trkpt lat="-31.71327162295744" lon="-64.69838822458637">
        <time>2021-10-31T08:14:47Z</time>
      </trkpt>
      <trkpt lat="-31.713784475018" lon="-64.69898243179745">
        <time>2021-10-31T08:14:47Z</time>
      </trkpt>
      <trkpt lat="-31.71408951262165" lon="-64.69905660788214">
        <time>2021-10-31T08:14:47Z</time>
      </trkpt>
      <trkpt lat="-31.71527461821776" lon="-64.69866079803269">
        <time>2021-10-31T08:14:47Z</time>
      </trkpt>
      <trkpt lat="-31.71574525236526" lon="-64.69867944897558">
        <time>2021-10-31T08:14:47Z</time>
      </trkpt>
      <trkpt lat="-31.71602135332143" lon="-64.69846614134833">
        <time>2021-10-31T08:14:47Z</time>
      </trkpt>
      <trkpt lat="-31.71596581297407" lon="-64.6981612651345">
        <time>2021-10-31T08:14:47Z</time>
      </trkpt>
      <trkpt lat="-31.71648769995386" lon="-64.69833144509806">
        <time>2021-10-31T08:14:47Z</time>
      </trkpt>
      <trkpt lat="-31.71746491082629" lon="-64.69714241535119">
        <time>2021-10-31T08:14:47Z</time>
      </trkpt>
      <trkpt lat="-31.71806135557823" lon="-64.69699039716868">
        <time>2021-10-31T08:14:47Z</time>
      </trkpt>
      <trkpt lat="-31.71839090146292" lon="-64.69663377740599">
        <time>2021-10-31T08:14:47Z</time>
      </trkpt>
      <trkpt lat="-31.71892229909199" lon="-64.6969571007873">
        <time>2021-10-31T08:14:47Z</time>
      </trkpt>
      <trkpt lat="-31.71927745507936" lon="-64.6969556467624">
        <time>2021-10-31T08:14:47Z</time>
      </trkpt>
      <trkpt lat="-31.72009308348775" lon="-64.69716973159431">
        <time>2021-10-31T08:14:47Z</time>
      </trkpt>
      <trkpt lat="-31.72121326862807" lon="-64.69874759395771">
        <time>2021-10-31T08:14:47Z</time>
      </trkpt>
      <trkpt lat="-31.72155654517276" lon="-64.69888170078706">
        <time>2021-10-31T08:14:47Z</time>
      </trkpt>
      <trkpt lat="-31.72281602954979" lon="-64.69909093343644">
        <time>2021-10-31T08:14:47Z</time>
      </trkpt>
      <trkpt lat="-31.72305612075244" lon="-64.69889742551521">
        <time>2021-10-31T08:14:47Z</time>
      </trkpt>
      <trkpt lat="-31.72302872995575" lon="-64.6986651292606">
        <time>2021-10-31T08:14:47Z</time>
      </trkpt>
      <trkpt lat="-31.72353815302744" lon="-64.69836763520375">
        <time>2021-10-31T08:14:47Z</time>
      </trkpt>
      <trkpt lat="-31.72418987044635" lon="-64.69739058395076">
        <time>2021-10-31T08:14:47Z</time>
      </trkpt>
      <trkpt lat="-31.72575166611273" lon="-64.69646644478715">
        <time>2021-10-31T08:14:47Z</time>
      </trkpt>
      <trkpt lat="-31.7269917538968" lon="-64.69598244995227">
        <time>2021-10-31T08:14:47Z</time>
      </trkpt>
      <trkpt lat="-31.72778455959793" lon="-64.69631411022257">
        <time>2021-10-31T08:14:47Z</time>
      </trkpt>
      <trkpt lat="-31.7275953730657" lon="-64.69571344567932">
        <time>2021-10-31T08:14:47Z</time>
      </trkpt>
      <trkpt lat="-31.72711490578534" lon="-64.69497051923567">
        <time>2021-10-31T08:14:47Z</time>
      </trkpt>
      <trkpt lat="-31.72601461206934" lon="-64.69410421111975">
        <time>2021-10-31T08:14:47Z</time>
      </trkpt>
      <trkpt lat="-31.72598302547446" lon="-64.69390891779641">
        <time>2021-10-31T08:14:47Z</time>
      </trkpt>
      <trkpt lat="-31.7261731188597" lon="-64.69342255032255">
        <time>2021-10-31T08:14:47Z</time>
      </trkpt>
      <trkpt lat="-31.72608121383852" lon="-64.69312519226681">
        <time>2021-10-31T08:14:47Z</time>
      </trkpt>
      <trkpt lat="-31.72556430531417" lon="-64.69301980733151">
        <time>2021-10-31T08:14:47Z</time>
      </trkpt>
      <trkpt lat="-31.7257278910912" lon="-64.69260584833458">
        <time>2021-10-31T08:14:47Z</time>
      </trkpt>
      <trkpt lat="-31.72529165446958" lon="-64.6925369267468">
        <time>2021-10-31T08:14:47Z</time>
      </trkpt>
      <trkpt lat="-31.72530608344699" lon="-64.69227034104114">
        <time>2021-10-31T08:14:47Z</time>
      </trkpt>
      <trkpt lat="-31.72565471230527" lon="-64.69194790400464">
        <time>2021-10-31T08:14:47Z</time>
      </trkpt>
      <trkpt lat="-31.72560251443997" lon="-64.69177829521922">
        <time>2021-10-31T08:14:47Z</time>
      </trkpt>
      <trkpt lat="-31.7257787920355" lon="-64.6915569289457">
        <time>2021-10-31T08:14:47Z</time>
      </trkpt>
      <trkpt lat="-31.72608090155653" lon="-64.69152806340607">
        <time>2021-10-31T08:14:47Z</time>
      </trkpt>
      <trkpt lat="-31.72611936428398" lon="-64.69133777877414">
        <time>2021-10-31T08:14:47Z</time>
      </trkpt>
      <trkpt lat="-31.72652972684281" lon="-64.69100436108798">
        <time>2021-10-31T08:14:47Z</time>
      </trkpt>
      <trkpt lat="-31.72651194199027" lon="-64.69076047480362">
        <time>2021-10-31T08:14:47Z</time>
      </trkpt>
      <trkpt lat="-31.72702986164331" lon="-64.69113945522534">
        <time>2021-10-31T08:14:47Z</time>
      </trkpt>
      <trkpt lat="-31.72720103995295" lon="-64.69164772494675">
        <time>2021-10-31T08:14:47Z</time>
      </trkpt>
      <trkpt lat="-31.7272296939544" lon="-64.69097724346743">
        <time>2021-10-31T08:14:47Z</time>
      </trkpt>
      <trkpt lat="-31.72754818344341" lon="-64.69140257207074">
        <time>2021-10-31T08:14:47Z</time>
      </trkpt>
      <trkpt lat="-31.72858291949495" lon="-64.69068881588814">
        <time>2021-10-31T08:14:47Z</time>
      </trkpt>
      <trkpt lat="-31.72838084934642" lon="-64.69025039253776">
        <time>2021-10-31T08:14:47Z</time>
      </trkpt>
      <trkpt lat="-31.72865247165697" lon="-64.69017550319053">
        <time>2021-10-31T08:14:47Z</time>
      </trkpt>
      <trkpt lat="-31.72856613666393" lon="-64.68996000549082">
        <time>2021-10-31T08:14:47Z</time>
      </trkpt>
      <trkpt lat="-31.72857507110337" lon="-64.68975798606223">
        <time>2021-10-31T08:14:47Z</time>
      </trkpt>
      <trkpt lat="-31.72874585666793" lon="-64.68960118504869">
        <time>2021-10-31T08:14:47Z</time>
      </trkpt>
      <trkpt lat="-31.72866997875558" lon="-64.6893681256435">
        <time>2021-10-31T08:14:47Z</time>
      </trkpt>
      <trkpt lat="-31.72859978954072" lon="-64.68920779178919">
        <time>2021-10-31T08:14:47Z</time>
      </trkpt>
      <trkpt lat="-31.72925780966766" lon="-64.68846569822672">
        <time>2021-10-31T08:14:47Z</time>
      </trkpt>
      <trkpt lat="-31.72956096735867" lon="-64.68693353076496">
        <time>2021-10-31T08:14:47Z</time>
      </trkpt>
      <trkpt lat="-31.72876387296922" lon="-64.68530097780751">
        <time>2021-10-31T08:14:47Z</time>
      </trkpt>
      <trkpt lat="-31.72814399413397" lon="-64.68506545327863">
        <time>2021-10-31T08:14:47Z</time>
      </trkpt>
      <trkpt lat="-31.72719973582542" lon="-64.68376099455566">
        <time>2021-10-31T08:14:47Z</time>
      </trkpt>
      <trkpt lat="-31.72700393506506" lon="-64.68290338254459">
        <time>2021-10-31T08:14:47Z</time>
      </trkpt>
      <trkpt lat="-31.72704426034698" lon="-64.68171936767513">
        <time>2021-10-31T08:14:47Z</time>
      </trkpt>
      <trkpt lat="-31.72738053531346" lon="-64.6810285614269">
        <time>2021-10-31T08:14:47Z</time>
      </trkpt>
      <trkpt lat="-31.72729943691085" lon="-64.68032512915897">
        <time>2021-10-31T08:14:47Z</time>
      </trkpt>
      <trkpt lat="-31.72682172185781" lon="-64.67991109240033">
        <time>2021-10-31T08:14:47Z</time>
      </trkpt>
      <trkpt lat="-31.72703653616724" lon="-64.67892879044761">
        <time>2021-10-31T08:14:47Z</time>
      </trkpt>
      <trkpt lat="-31.72686092755202" lon="-64.67844077322533">
        <time>2021-10-31T08:14:47Z</time>
      </trkpt>
      <trkpt lat="-31.72635907264616" lon="-64.6780948631929">
        <time>2021-10-31T08:14:47Z</time>
      </trkpt>
      <trkpt lat="-31.72616393624091" lon="-64.67807426088109">
        <time>2021-10-31T08:14:47Z</time>
      </trkpt>
      <trkpt lat="-31.72599289756625" lon="-64.67824121016751">
        <time>2021-10-31T08:14:47Z</time>
      </trkpt>
      <trkpt lat="-31.72570244381655" lon="-64.67825606490914">
        <time>2021-10-31T08:14:47Z</time>
      </trkpt>
      <trkpt lat="-31.72537729531236" lon="-64.67822239773719">
        <time>2021-10-31T08:14:47Z</time>
      </trkpt>
      <trkpt lat="-31.72493265684442" lon="-64.67792621456745">
        <time>2021-10-31T08:14:47Z</time>
      </trkpt>
      <trkpt lat="-31.72466011509621" lon="-64.67814697871469">
        <time>2021-10-31T08:14:47Z</time>
      </trkpt>
      <trkpt lat="-31.72435143004047" lon="-64.67848313479234">
        <time>2021-10-31T08:14:47Z</time>
      </trkpt>
      <trkpt lat="-31.72413031197709" lon="-64.67837774293329">
        <time>2021-10-31T08:14:47Z</time>
      </trkpt>
      <trkpt lat="-31.72386656817613" lon="-64.67804959488855">
        <time>2021-10-31T08:14:47Z</time>
      </trkpt>
      <trkpt lat="-31.72386053858215" lon="-64.67794296557999">
        <time>2021-10-31T08:14:47Z</time>
      </trkpt>
      <trkpt lat="-31.72374002252288" lon="-64.67775173516164">
        <time>2021-10-31T08:14:47Z</time>
      </trkpt>
      <trkpt lat="-31.72365165053166" lon="-64.67773379874717">
        <time>2021-10-31T08:14:47Z</time>
      </trkpt>
      <trkpt lat="-31.72336718911185" lon="-64.67710011898333">
        <time>2021-10-31T08:14:47Z</time>
      </trkpt>
      <trkpt lat="-31.72267889357742" lon="-64.67686685426598">
        <time>2021-10-31T08:14:47Z</time>
      </trkpt>
      <trkpt lat="-31.72241895189946" lon="-64.67667392650337">
        <time>2021-10-31T08:14:47Z</time>
      </trkpt>
      <trkpt lat="-31.72203940263975" lon="-64.6767528059022">
        <time>2021-10-31T08:14:47Z</time>
      </trkpt>
      <trkpt lat="-31.72132396811772" lon="-64.67652416567094">
        <time>2021-10-31T08:14:47Z</time>
      </trkpt>
      <trkpt lat="-31.72102940907619" lon="-64.67639314243543">
        <time>2021-10-31T08:14:47Z</time>
      </trkpt>
      <trkpt lat="-31.72084480865538" lon="-64.67629346275943">
        <time>2021-10-31T08:14:47Z</time>
      </trkpt>
      <trkpt lat="-31.71964122220215" lon="-64.67637589908985">
        <time>2021-10-31T08:14:47Z</time>
      </trkpt>
      <trkpt lat="-31.71935431826021" lon="-64.67630157167228">
        <time>2021-10-31T08:14:47Z</time>
      </trkpt>
      <trkpt lat="-31.71902459693483" lon="-64.67642837893754">
        <time>2021-10-31T08:14:47Z</time>
      </trkpt>
      <trkpt lat="-31.7186232380214" lon="-64.67659359129152">
        <time>2021-10-31T08:14:47Z</time>
      </trkpt>
      <trkpt lat="-31.71823485382507" lon="-64.6764662207149">
        <time>2021-10-31T08:14:47Z</time>
      </trkpt>
      <trkpt lat="-31.71769271414137" lon="-64.67636620298796">
        <time>2021-10-31T08:14:47Z</time>
      </trkpt>
      <trkpt lat="-31.71707085867736" lon="-64.67634052499065">
        <time>2021-10-31T08:14:47Z</time>
      </trkpt>
      <trkpt lat="-31.71665816120817" lon="-64.67621054125331">
        <time>2021-10-31T08:14:47Z</time>
      </trkpt>
      <trkpt lat="-31.71599625951979" lon="-64.67616148928845">
        <time>2021-10-31T08:14:47Z</time>
      </trkpt>
      <trkpt lat="-31.71519980621438" lon="-64.67596095262871">
        <time>2021-10-31T08:14:47Z</time>
      </trkpt>
      <trkpt lat="-31.71428714035096" lon="-64.67572219971768">
        <time>2021-10-31T08:14:47Z</time>
      </trkpt>
      <trkpt lat="-31.71360062826583" lon="-64.67552827783241">
        <time>2021-10-31T08:14:47Z</time>
      </trkpt>
      <trkpt lat="-31.71345294761959" lon="-64.67544854181202">
        <time>2021-10-31T08:14:47Z</time>
      </trkpt>
      <trkpt lat="-31.71321112025037" lon="-64.67546863514448">
        <time>2021-10-31T08:14:47Z</time>
      </trkpt>
      <trkpt lat="-31.71313439642213" lon="-64.67521873861951">
        <time>2021-10-31T08:14:47Z</time>
      </trkpt>
      <trkpt lat="-31.71300551844181" lon="-64.67494593963947">
        <time>2021-10-31T08:14:47Z</time>
      </trkpt>
      <trkpt lat="-31.71287896467703" lon="-64.67464811844482">
        <time>2021-10-31T08:14:47Z</time>
      </trkpt>
      <trkpt lat="-31.71275744040609" lon="-64.67442133566311">
        <time>2021-10-31T08:14:47Z</time>
      </trkpt>
      <trkpt lat="-31.71255469939021" lon="-64.67421552270696">
        <time>2021-10-31T08:14:47Z</time>
      </trkpt>
      <trkpt lat="-31.71251092419648" lon="-64.67416736267081">
        <time>2021-10-31T08:14:47Z</time>
      </trkpt>
      <trkpt lat="-31.71245404153217" lon="-64.67354628136613">
        <time>2021-10-31T08:14:47Z</time>
      </trkpt>
      <trkpt lat="-31.71171750557807" lon="-64.67234280835208">
        <time>2021-10-31T08:14:47Z</time>
      </trkpt>
      <trkpt lat="-31.71152556390092" lon="-64.67209027986027">
        <time>2021-10-31T08:14:47Z</time>
      </trkpt>
      <trkpt lat="-31.71151994068778" lon="-64.67135323610484">
        <time>2021-10-31T08:14:47Z</time>
      </trkpt>
      <trkpt lat="-31.71095755123748" lon="-64.67042773558485">
        <time>2021-10-31T08:14:47Z</time>
      </trkpt>
      <trkpt lat="-31.71066449264653" lon="-64.66970545777342">
        <time>2021-10-31T08:14:47Z</time>
      </trkpt>
      <trkpt lat="-31.71050590427514" lon="-64.66902424501525">
        <time>2021-10-31T08:14:47Z</time>
      </trkpt>
      <trkpt lat="-31.71004742641341" lon="-64.66866814047216">
        <time>2021-10-31T08:14:47Z</time>
      </trkpt>
      <trkpt lat="-31.70965619283826" lon="-64.66865489618384">
        <time>2021-10-31T08:14:47Z</time>
      </trkpt>
      <trkpt lat="-31.70950559745912" lon="-64.66847200210007">
        <time>2021-10-31T08:14:47Z</time>
      </trkpt>
      <trkpt lat="-31.70941795808363" lon="-64.6682652852443">
        <time>2021-10-31T08:14:47Z</time>
      </trkpt>
      <trkpt lat="-31.70925262050736" lon="-64.667452565826">
        <time>2021-10-31T08:14:47Z</time>
      </trkpt>
      <trkpt lat="-31.70907538637385" lon="-64.66729208214296">
        <time>2021-10-31T08:14:47Z</time>
      </trkpt>
      <trkpt lat="-31.70887815586897" lon="-64.66728196461547">
        <time>2021-10-31T08:14:47Z</time>
      </trkpt>
      <trkpt lat="-31.70879049983916" lon="-64.66718209731678">
        <time>2021-10-31T08:14:47Z</time>
      </trkpt>
      <trkpt lat="-31.70885222300755" lon="-64.66657778763987">
        <time>2021-10-31T08:14:47Z</time>
      </trkpt>
      <trkpt lat="-31.7092465112267" lon="-64.66637720941294">
        <time>2021-10-31T08:14:47Z</time>
      </trkpt>
      <trkpt lat="-31.70916873767893" lon="-64.66630544969699">
        <time>2021-10-31T08:14:47Z</time>
      </trkpt>
      <trkpt lat="-31.70904395841675" lon="-64.66617853828096">
        <time>2021-10-31T08:14:47Z</time>
      </trkpt>
      <trkpt lat="-31.70899736645749" lon="-64.66603076806338">
        <time>2021-10-31T08:14:47Z</time>
      </trkpt>
      <trkpt lat="-31.70920932914842" lon="-64.66602606140816">
        <time>2021-10-31T08:14:47Z</time>
      </trkpt>
      <trkpt lat="-31.70944439957425" lon="-64.66598127612109">
        <time>2021-10-31T08:14:47Z</time>
      </trkpt>
      <trkpt lat="-31.70969199137101" lon="-64.66584340082457">
        <time>2021-10-31T08:14:47Z</time>
      </trkpt>
      <trkpt lat="-31.71000365681262" lon="-64.66561398571598">
        <time>2021-10-31T08:14:47Z</time>
      </trkpt>
      <trkpt lat="-31.71027236007068" lon="-64.66525802733059">
        <time>2021-10-31T08:14:47Z</time>
      </trkpt>
      <trkpt lat="-31.71057536009321" lon="-64.66493634453222">
        <time>2021-10-31T08:14:47Z</time>
      </trkpt>
      <trkpt lat="-31.71074877976929" lon="-64.66496163286209">
        <time>2021-10-31T08:14:47Z</time>
      </trkpt>
      <trkpt lat="-31.71074899350849" lon="-64.66486189889463">
        <time>2021-10-31T08:14:47Z</time>
      </trkpt>
      <trkpt lat="-31.71087025792271" lon="-64.66486429070765">
        <time>2021-10-31T08:14:47Z</time>
      </trkpt>
      <trkpt lat="-31.71095216389989" lon="-64.66497506732684">
        <time>2021-10-31T08:14:47Z</time>
      </trkpt>
      <trkpt lat="-31.71102780276302" lon="-64.66518581475619">
        <time>2021-10-31T08:14:47Z</time>
      </trkpt>
      <trkpt lat="-31.71115394072909" lon="-64.66493157826709">
        <time>2021-10-31T08:14:47Z</time>
      </trkpt>
      <trkpt lat="-31.71115890159126" lon="-64.66478535725817">
        <time>2021-10-31T08:14:47Z</time>
      </trkpt>
      <trkpt lat="-31.71106470069194" lon="-64.66456108780632">
        <time>2021-10-31T08:14:47Z</time>
      </trkpt>
      <trkpt lat="-31.71114282631824" lon="-64.66421612107833">
        <time>2021-10-31T08:14:47Z</time>
      </trkpt>
      <trkpt lat="-31.71133363776647" lon="-64.66389168766702">
        <time>2021-10-31T08:14:47Z</time>
      </trkpt>
      <trkpt lat="-31.71169536836787" lon="-64.66339674399244">
        <time>2021-10-31T08:14:47Z</time>
      </trkpt>
      <trkpt lat="-31.71181342688876" lon="-64.66317843599779">
        <time>2021-10-31T08:14:47Z</time>
      </trkpt>
      <trkpt lat="-31.71232766901738" lon="-64.66293397453771">
        <time>2021-10-31T08:14:47Z</time>
      </trkpt>
      <trkpt lat="-31.71287116985026" lon="-64.66265275159793">
        <time>2021-10-31T08:14:47Z</time>
      </trkpt>
      <trkpt lat="-31.71324619814425" lon="-64.66230686822347">
        <time>2021-10-31T08:14:47Z</time>
      </trkpt>
      <trkpt lat="-31.71335194888066" lon="-64.66208191152033">
        <time>2021-10-31T08:14:47Z</time>
      </trkpt>
      <trkpt lat="-31.713833428237" lon="-64.66153597098564">
        <time>2021-10-31T08:14:47Z</time>
      </trkpt>
      <trkpt lat="-31.71406308567797" lon="-64.66108534345913">
        <time>2021-10-31T08:14:47Z</time>
      </trkpt>
      <trkpt lat="-31.71428997891277" lon="-64.66107291925786">
        <time>2021-10-31T08:14:47Z</time>
      </trkpt>
      <trkpt lat="-31.71439937617531" lon="-64.66065548002751">
        <time>2021-10-31T08:14:47Z</time>
      </trkpt>
      <trkpt lat="-31.71426823650997" lon="-64.66051813166287">
        <time>2021-10-31T08:14:47Z</time>
      </trkpt>
      <trkpt lat="-31.71398355458043" lon="-64.66030842396543">
        <time>2021-10-31T08:14:47Z</time>
      </trkpt>
      <trkpt lat="-31.71393881156811" lon="-64.65969042617785">
        <time>2021-10-31T08:14:47Z</time>
      </trkpt>
      <trkpt lat="-31.71336634875739" lon="-64.65884016838596">
        <time>2021-10-31T08:14:47Z</time>
      </trkpt>
      <trkpt lat="-31.71388764093431" lon="-64.65863102115718">
        <time>2021-10-31T08:14:47Z</time>
      </trkpt>
      <trkpt lat="-31.71506990042291" lon="-64.65897304923442">
        <time>2021-10-31T08:14:47Z</time>
      </trkpt>
      <trkpt lat="-31.71593106073129" lon="-64.65899638134515">
        <time>2021-10-31T08:14:47Z</time>
      </trkpt>
      <trkpt lat="-31.71616008444215" lon="-64.65884495631408">
        <time>2021-10-31T08:14:47Z</time>
      </trkpt>
      <trkpt lat="-31.71620662084054" lon="-64.65845489598043">
        <time>2021-10-31T08:14:47Z</time>
      </trkpt>
      <trkpt lat="-31.71654351389067" lon="-64.65793950394267">
        <time>2021-10-31T08:14:47Z</time>
      </trkpt>
      <trkpt lat="-31.71629405271367" lon="-64.65747553047454">
        <time>2021-10-31T08:14:47Z</time>
      </trkpt>
      <trkpt lat="-31.71633018910744" lon="-64.65714642671557">
        <time>2021-10-31T08:14:47Z</time>
      </trkpt>
      <trkpt lat="-31.7167262819021" lon="-64.65690297749752">
        <time>2021-10-31T08:14:47Z</time>
      </trkpt>
      <trkpt lat="-31.71697562081356" lon="-64.65597070033198">
        <time>2021-10-31T08:14:47Z</time>
      </trkpt>
      <trkpt lat="-31.71681777904729" lon="-64.65499735439963">
        <time>2021-10-31T08:14:47Z</time>
      </trkpt>
      <trkpt lat="-31.71689810370379" lon="-64.65451692004342">
        <time>2021-10-31T08:14:47Z</time>
      </trkpt>
      <trkpt lat="-31.71689156251001" lon="-64.65407194129533">
        <time>2021-10-31T08:14:47Z</time>
      </trkpt>
      <trkpt lat="-31.71718323682415" lon="-64.65367227501861">
        <time>2021-10-31T08:14:47Z</time>
      </trkpt>
      <trkpt lat="-31.71721947438417" lon="-64.65302615264719">
        <time>2021-10-31T08:14:47Z</time>
      </trkpt>
      <trkpt lat="-31.71718023531558" lon="-64.6528175373019">
        <time>2021-10-31T08:14:47Z</time>
      </trkpt>
      <trkpt lat="-31.71662729937004" lon="-64.65180267796245">
        <time>2021-10-31T08:14:47Z</time>
      </trkpt>
      <trkpt lat="-31.7158584572256" lon="-64.65118809274136">
        <time>2021-10-31T08:14:47Z</time>
      </trkpt>
      <trkpt lat="-31.7157803061938" lon="-64.65018117861882">
        <time>2021-10-31T08:14:47Z</time>
      </trkpt>
      <trkpt lat="-31.7149219752037" lon="-64.64960268704625">
        <time>2021-10-31T08:14:47Z</time>
      </trkpt>
      <trkpt lat="-31.71414728413638" lon="-64.6495004031672">
        <time>2021-10-31T08:14:47Z</time>
      </trkpt>
      <trkpt lat="-31.71407995894496" lon="-64.64919531486223">
        <time>2021-10-31T08:14:47Z</time>
      </trkpt>
      <trkpt lat="-31.71371643084532" lon="-64.64910875541787">
        <time>2021-10-31T08:14:47Z</time>
      </trkpt>
      <trkpt lat="-31.71377037983232" lon="-64.64862383073009">
        <time>2021-10-31T08:14:47Z</time>
      </trkpt>
      <trkpt lat="-31.71426133769475" lon="-64.64795199600333">
        <time>2021-10-31T08:14:47Z</time>
      </trkpt>
      <trkpt lat="-31.71377442590909" lon="-64.64765274609171">
        <time>2021-10-31T08:14:47Z</time>
      </trkpt>
      <trkpt lat="-31.71388352400413" lon="-64.64736196555413">
        <time>2021-10-31T08:14:47Z</time>
      </trkpt>
      <trkpt lat="-31.71433706426432" lon="-64.64712134733638">
        <time>2021-10-31T08:14:47Z</time>
      </trkpt>
      <trkpt lat="-31.71386614746893" lon="-64.64626270609797">
        <time>2021-10-31T08:14:47Z</time>
      </trkpt>
      <trkpt lat="-31.71415392276479" lon="-64.6459065537227">
        <time>2021-10-31T08:14:47Z</time>
      </trkpt>
      <trkpt lat="-31.71308629651715" lon="-64.64470692746666">
        <time>2021-10-31T08:14:47Z</time>
      </trkpt>
      <trkpt lat="-31.71335148841211" lon="-64.64355581540102">
        <time>2021-10-31T08:14:47Z</time>
      </trkpt>
      <trkpt lat="-31.71307455098021" lon="-64.64318084499492">
        <time>2021-10-31T08:14:47Z</time>
      </trkpt>
      <trkpt lat="-31.71300238465821" lon="-64.64254700897456">
        <time>2021-10-31T08:14:47Z</time>
      </trkpt>
      <trkpt lat="-31.71231555776149" lon="-64.64172508886337">
        <time>2021-10-31T08:14:47Z</time>
      </trkpt>
      <trkpt lat="-31.71204308831513" lon="-64.64150765170946">
        <time>2021-10-31T08:14:47Z</time>
      </trkpt>
      <trkpt lat="-31.71232502191962" lon="-64.63951760725598">
        <time>2021-10-31T08:14:47Z</time>
      </trkpt>
      <trkpt lat="-31.71146462472496" lon="-64.63894128408903">
        <time>2021-10-31T08:14:47Z</time>
      </trkpt>
      <trkpt lat="-31.71147721858638" lon="-64.63859062703611">
        <time>2021-10-31T08:14:47Z</time>
      </trkpt>
      <trkpt lat="-31.71274758995998" lon="-64.63755386235539">
        <time>2021-10-31T08:14:47Z</time>
      </trkpt>
      <trkpt lat="-31.7133629881895" lon="-64.63760925243109">
        <time>2021-10-31T08:14:47Z</time>
      </trkpt>
      <trkpt lat="-31.71372014294177" lon="-64.63699567839525">
        <time>2021-10-31T08:14:47Z</time>
      </trkpt>
      <trkpt lat="-31.71424743921845" lon="-64.63665130071263">
        <time>2021-10-31T08:14:47Z</time>
      </trkpt>
      <trkpt lat="-31.71427083704894" lon="-64.63620470713454">
        <time>2021-10-31T08:14:47Z</time>
      </trkpt>
      <trkpt lat="-31.71460257818205" lon="-64.63549130106342">
        <time>2021-10-31T08:14:47Z</time>
      </trkpt>
      <trkpt lat="-31.71479914045188" lon="-64.63415184083841">
        <time>2021-10-31T08:14:47Z</time>
      </trkpt>
      <trkpt lat="-31.71437012444231" lon="-64.63319248318166">
        <time>2021-10-31T08:14:47Z</time>
      </trkpt>
      <trkpt lat="-31.71423358264451" lon="-64.63251871773183">
        <time>2021-10-31T08:14:47Z</time>
      </trkpt>
      <trkpt lat="-31.71485567505451" lon="-64.63201670707728">
        <time>2021-10-31T08:14:47Z</time>
      </trkpt>
      <trkpt lat="-31.71543036713951" lon="-64.63111863243824">
        <time>2021-10-31T08:14:47Z</time>
      </trkpt>
      <trkpt lat="-31.71582876423139" lon="-64.63116130583187">
        <time>2021-10-31T08:14:47Z</time>
      </trkpt>
      <trkpt lat="-31.71613694869593" lon="-64.63088918642811">
        <time>2021-10-31T08:14:47Z</time>
      </trkpt>
      <trkpt lat="-31.71593878786363" lon="-64.63027091245448">
        <time>2021-10-31T08:14:47Z</time>
      </trkpt>
      <trkpt lat="-31.71560325923997" lon="-64.62958377338801">
        <time>2021-10-31T08:14:47Z</time>
      </trkpt>
      <trkpt lat="-31.71503270792497" lon="-64.62904381225154">
        <time>2021-10-31T08:14:47Z</time>
      </trkpt>
      <trkpt lat="-31.71472107489898" lon="-64.62840348923848">
        <time>2021-10-31T08:14:47Z</time>
      </trkpt>
    </trkseg>
  </trk>
</gpx>
